Aérodrome :
LOGIN :

S'inscrire | Disclaimer

   EN    FR    IT 

 










Légende :    VFR   VFR Marginal   IFR   IFR Intensif   IFR Très Intensif
Visi : 
Plafond : 
>= 8 km
>= 3000ft
5 à 8 km
1000 à 3000 ft
1500m à 5 km
500 à 1000 ft
800 à 1500m
200 à 500 ft
< 800m
< 200 ft
Symboles :   Orages  Brouillard  Fortes neiges  Fortes précipitations  Vent > 20 kt
SIGMETs :   Divers  Orages  Givrage  Turbulence  Onde Orograph.  Cendres Volcan.







- Altitude de l'aérodrome : 157 ft
- Code IATA : SXF


EDDB - Berlin Schönefeld

DERNIER METAR :
  • 130350Z 20004KT 9999 -RA FEW031 09/07 Q1019 NOSIG

METARs EXPIRÉS :
  • 130320Z 19005KT 9999 -RA SCT033 09/07 Q1019 NOSIG
  • 130250Z 18004KT CAVOK 08/07 Q1019 NOSIG
  • 130220Z 19003KT 150V210 CAVOK 08/06 Q1019 NOSIG
  • 130150Z 19003KT CAVOK 09/07 Q1019 NOSIG
  • 130120Z VRB02KT CAVOK 09/06 Q1019 NOSIG

TAF TAF EDDB
Valide du 13 à 00h jusqu'au 14 à 00h UTC


122300Z 1300/1324 20005KT 9999 BKN030
TEMPO 1305/1312 4500 RA BR BKN008
BECMG 1309/1312 26008KT
PROB30
TEMPO 1313/1318 SHRA BKN015CB
Pas de NOTAMs connus pour ce terrain.



MET'MAP, la Météo Aéronautique d'un coup d'oeil ! - Copyright ORBIFLY Décembre 2007 - Disclaimer

ORBIFLY MET'MAP TEAM :

Programmation & Développement : Alexandra Zaïnal
Conception & Développement : Baudouin d'Aumeries
Co-Programmation & Développement : Marc-Olivier Méhu
Soutien technique & logistique : Manuel Goepfert

Contact : metmap@orbifly.com




SOURCES & CREDITS :

   NOAA